STARLINK-31777 (59619 NORAD) Tracking and Keplerian Element Data

This shows tracking and keplerian element data for the satellite.

Feedback or suggestion? Click here.




ElementValue
Catalog59619
NameSTARLINK-31777
Epoch Orbit749
Epoch Day160.06637028
Epoch Year2024
RAAN87.9676
Inclination43.0015
Eccentricity0.000161
Argument of Perigee256.9294
Mean Anonmoly103.1383
Mean Motion15.40715031
Decay Rate0.00011202
L11 59619U 24080U 24160.06637028 .00011202 00000+0 27490-3 0 9999
L22 59619 43.0015 87.9676 0001610 256.9294 103.1383 15.40715031 7499



Live tracking and technical data element details for STARLINK-31777 (NORAD 59619). STARLINK-31777 can be tracked NOW for your location showing map with azimuth and elevation plus other details from your city location.







IsCatalogInMostPopularTable: catalog: 59619, numindb: 14
Update: records affected: 1



GetName: 59619 STARLINK-31777

Hit Count: updated at: Fri, 14 Jun 2024 19:38:51 GMT